This is the latest recevied weather packets stored in our database for station/object SR8NGO-1. If no packets are shown the sender has not sent any weather packets the latest 10 day(s).
| Time | Temp. | Humidity | Pressure | Rain* | Wind** | Luminosity | Snow |
|---|---|---|---|---|---|---|---|
| 1777785643 | 16.11° C | 53% | 1009.2 hPa | 137.92 mm | - | - | - |
| 1777784683 | 15° C | 54% | 1009.3 hPa | 136.91 mm | - | - | - |
| 1777784443 | 15° C | 54% | 1009.3 hPa | 136.91 mm | - | - | - |
| 1777783723 | 13.89° C | 57% | 1009.2 hPa | 135.89 mm | - | - | - |
| 1777783483 | 13.89° C | 58% | 1009.2 hPa | 134.87 mm | - | - | - |
| 1777783243 | 13.89° C | 59% | 1009.2 hPa | 134.87 mm | - | - | - |
| 1777783003 | 12.78° C | 61% | 1009.2 hPa | 134.87 mm | - | - | - |
| 1777782523 | 12.78° C | 65% | 1009.1 hPa | 134.11 mm | - | - | - |
| 1777782283 | 12.78° C | 66% | 1009.1 hPa | 134.11 mm | - | - | - |
| 1777782043 | 12.22° C | 68% | 1009.1 hPa | 134.11 mm | - | - | - |
| 1777781803 | 12.22° C | 69% | 1009 hPa | 133.1 mm | - | - | - |
| 1777781323 | 11.11° C | 71% | 1009 hPa | 132.08 mm | - | - | - |
| 1777781083 | 11.11° C | 72% | 1009 hPa | 132.08 mm | - | - | - |
| 1777780843 | 10° C | 72% | 1009 hPa | 131.06 mm | - | - | - |
| 1777780124 | 8.89° C | 72% | 1009 hPa | 129.03 mm | - | - | - |
| 1777779883 | 8.89° C | 71% | 1009 hPa | 128.02 mm | - | - | - |
| 1777779643 | 8.89° C | 71% | 1009 hPa | 127 mm | - | - | - |
| 1777779403 | 7.78° C | 71% | 1009 hPa | 125.98 mm | - | - | - |
| 1777778924 | 7.78° C | 71% | 1009 hPa | 124.97 mm | - | - | - |
| 1777778683 | 7.78° C | 71% | 1009 hPa | 124.97 mm | - | - | - |
| 1777778443 | 7.22° C | 70% | 1009 hPa | 124.97 mm | - | - | - |
| 1777778203 | 7.22° C | 70% | 1008.9 hPa | 124.97 mm | - | - | - |
| 1777777724 | 7.22° C | 70% | 1008.9 hPa | 123.95 mm | - | - | - |
| 1777777483 | 7.22° C | 70% | 1008.9 hPa | 123.95 mm | - | - | - |
| 1777777243 | 7.22° C | 70% | 1008.9 hPa | 123.95 mm | - | - | - |
* Rain latest hour (hover to see other rain measurements)
** Current wind speed in m/s (hover to see current wind gust speed)